sat.trackr.live / text

‹ back to catalog

LEGION 2

NORAD 59626 · 2024-081B

PAYLOAD ACTIVE UNKNOWN

§ Identity

Operator
Country
US
Launch date
2024-05-02
Launch site
AFWTR
Launch vehicle
Mass (kg)
RCS (m²)

Purposes: earth_obs

External: N2YO · Heavens-Above · Gunter

§ Orbital elements

Epoch: 2026-09-19T21:58:43.891392Z

Period
94.91 min
Inclination
97.4948°
Eccentricity
0.0011571
Mean motion
15.17201951 rev/d
Perigee alt
506.3 km
Apogee alt
522.3 km
Semi-major
6,892.4 km
B*
1.1051e-4
RAAN
339.8563°
Arg perigee
15.4349°
Mean anomaly
344.7235°
Rev number
13,190

§ Raw data

LEGION 21 59626U 24081B   26262.91578578  .00002131  00000+0  11051-3 0  99982 59626  97.4948 339.8563 0011571  15.4349 344.7235 15.17201951131903

JSON: /api/v1/satellites/59626 · /tle

For live sub-satellite position, see the globe view (requires WebGL).

§ Visibility from observer

Set your observer location to see the next 7 days of passes ≥ 10°. The values pass through the URL so the page stays shareable.

No JS? Fill the form by hand. The geolocation button needs JavaScript.